Temperature
17 17 18 19 22 22 22 23 23 23 23 23 22 23 24 24 23 22 20 19 19 18 17 16 15 14 13 13 13 13 12 12 12 11 11 11 10 10 10 10 10 10 10 10 10 10 11 11 11
17 17 18 20 22 22 22 23 23 24 23 22 22 22 23 23 21 20 20 19 19 18 17 16 15 14 14 13 13 13 12 12 12 11 11 10 10 10 10 10 10 10 11 11 11 11 11 11 11
17 18 19 22 22 22 23 23 24 23 22 22 22 22 23 22 20 20 20 20 19 18 17 16 15 14 14 13 13 12 12 12 11 11 10 10 10 10 10 10 10 11 11 11 11 11 11 11 11
17 18 20 22 22 22 23 23 23 23 22 22 23 23 22 20 20 20 20 20 19 18 17 17 16 14 14 13 12 12 12 11 11 11 10 10 10 10 10 11 11 11 11 11 11 11 11 11 11
17 20 21 21 22 22 23 22 22 23 23 22 22 23 22 20 21 20 20 19 19 18 17 16 16 14 13 13 12 12 12 11 11 10 10 10 10 10 11 10 10 10 10 10 10 11 11 11 11
18 21 21 21 22 22 22 21 22 23 23 22 22 23 22 20 20 20 20 19 18 18 17 16 16 14 13 12 12 12 11 11 11 10 10 10 10 10 10 10 10 10 10 10 10 10 11 11 11
19 21 21 21 21 22 22 21 22 23 23 22 22 23 22 19 20 20 19 18 17 17 17 16 15 14 13 12 12 11 11 11 10 10 10 10 10 9 10 10 10 10 10 10 10 10 10 10 10
18 21 20 21 21 21 22 21 21 22 23 21 21 23 23 19 20 20 19 18 18 17 16 15 14 13 13 12 12 11 11 11 10 10 10 10 10 9 10 9 9 9 9 9 9 9 9 10 10
17 20 20 21 21 21 21 21 20 20 21 20 20 21 20 20 20 20 19 18 18 17 17 15 14 13 12 12 11 11 11 10 10 10 10 9 9 9 9 9 9 9 9 9 9 9 9 9 9
19 20 20 21 21 21 21 21 21 21 21 21 20 20 20 20 20 19 19 19 19 18 17 16 15 14 13 12 11 11 11 10 10 10 9 9 9 9 9 9 9 9 9 8 8 8 8 8 8
19 20 20 20 20 20 20 20 20 21 22 22 22 21 20 20 19 19 19 19 19 18 17 16 15 14 13 12 11 11 11 10 10 10 9 9 9 9 9 8 8 8 8 8 8 8 8 8 8
19 20 19 20 18 19 20 20 20 20 21 21 20 20 19 19 19 19 18 18 18 18 18 17 16 14 13 12 11 11 11 10 10 10 9 9 9 9 9 9 8 8 8 8 8 8 8 8 7
19 19 19 18 18 18 19 19 20 20 20 20 19 19 19 19 19 19 18 17 17 18 17 17 16 15 14 13 12 11 11 10 10 10 9 9 9 9 9 9 8 8 8 8 8 8 8 8 7
19 19 19 19 18 18 18 20 19 20 20 19 18 18 19 18 18 18 18 18 18 18 17 17 16 15 14 13 12 11 11 10 10 10 10 9 9 9 9 9 9 8 8 8 8 8 8 8 7
18 19 19 19 18 18 18 19 20 20 19 18 19 19 18 18 18 18 18 18 18 18 17 16 16 15 14 13 12 11 11 10 10 10 10 9 9 9 9 9 9 9 8 8 8 8 8 8 8
18 18 19 19 18 17 18 19 21 19 18 19 19 19 18 18 18 18 18 18 18 17 17 16 16 15 14 13 12 11 11 10 10 10 10 10 9 9 9 9 9 9 8 8 8 8 8 8 7
18 18 19 19 18 18 18 19 21 18 18 19 20 20 19 18 18 19 19 18 18 17 17 16 16 15 14 13 12 11 11 11 10 10 10 9 9 9 9 9 9 9 8 8 8 8 8 7 7
18 18 18 19 19 18 18 19 20 19 18 19 20 20 19 19 19 18 18 18 18 17 17 16 16 15 14 13 12 11 11 10 10 10 10 9 9 9 9 9 9 9 8 8 8 8 8 7 7
18 18 18 19 18 17 18 19 20 20 19 19 19 20 19 19 18 18 18 18 18 17 17 16 16 15 14 13 12 11 11 11 10 10 10 10 9 9 9 9 9 9 8 8 8 8 7 7 7
17 17 18 18 18 17 18 18 20 20 19 19 19 19 19 18 17 17 18 18 17 17 17 16 16 15 14 13 13 12 11 11 10 10 10 10 9 9 9 9 9 9 8 8 8 8 7 7 7
17 17 18 18 18 17 16 18 19 20 19 18 18 18 18 17 16 16 17 17 17 17 17 16 16 15 14 13 12 12 11 10 10 10 10 10 9 9 9 9 9 9 8 8 8 7 7 6 6
17 17 17 17 17 18 17 17 19 20 19 19 19 18 18 16 15 15 15 16 16 16 16 16 15 14 14 13 12 12 11 11 10 10 10 10 9 9 9 9 9 8 8 8 7 7 7 6 6
17 17 16 16 17 17 17 16 18 19 19 20 20 18 17 16 15 14 15 15 15 15 15 15 15 14 13 13 12 12 11 11 11 10 10 9 9 9 9 9 9 8 8 8 7 7 6 6 5
16 15 15 15 16 16 17 17 18 20 20 20 20 19 17 15 14 14 14 14 14 14 14 14 14 14 13 12 12 11 11 11 11 10 10 10 9 9 9 9 8 8 8 7 7 6 6 6 5
16 16 15 15 15 16 16 16 18 20 20 19 19 18 16 15 14 13 13 13 13 14 14 14 13 13 13 12 11 11 11 11 11 10 10 10 10 9 9 9 8 8 7 7 7 6 6 5 5
16 17 16 15 16 17 15 16 19 20 18 17 17 16 15 14 13 13 13 13 13 13 13 13 13 12 12 12 11 11 11 11 10 10 10 10 10 9 9 8 8 7 7 7 6 6 6 5 5
16 16 18 17 16 15 16 17 18 19 19 18 17 16 15 14 13 12 12 12 12 13 13 13 12 12 12 11 11 11 11 11 10 10 10 9 9 9 8 8 8 7 7 6 6 6 5 5 4
17 17 15 15 14 15 16 17 17 19 19 19 18 17 15 14 13 12 12 12 12 12 12 12 12 12 11 11 11 11 11 11 10 10 10 9 9 9 8 8 7 7 6 6 6 5 5 4 4
15 15 16 16 16 15 16 17 18 19 19 18 18 17 15 14 13 13 12 11 11 11 11 11 11 11 11 11 11 11 11 10 10 10 10 9 9 8 8 7 7 6 6 6 5 5 4 4 3
16 16 16 15 15 15 16 17 19 18 18 17 17 16 15 14 14 13 12 12 11 11 11 11 11 11 11 11 11 11 11 10 10 10 9 9 8 8 7 7 6 6 6 5 5 4 4 3 3
Wind_Speed
3 4 3 3 5 6 8 6 5 6 5 3 3 3 1 1 2 3 4 11 11 17 19 20 18 17 16 15 14 14 13 13 12 12 12 11 11 11 12 12 13 13 13 14 14 14 15 15 15
3 2 3 4 7 8 8 8 8 7 4 4 4 4 3 3 3 6 7 11 13 19 19 19 19 18 17 16 15 14 13 13 12 12 12 11 11 11 11 12 12 13 13 13 13 14 14 15 14
2 3 4 5 7 9 6 8 8 5 5 5 5 3 1 4 5 6 7 15 15 18 18 19 20 18 17 16 15 15 14 13 13 12 11 11 11 11 11 11 12 12 12 12 12 13 13 13 13
3 4 4 7 10 8 4 5 6 7 6 5 5 4 3 3 3 5 11 15 16 18 18 19 20 18 17 16 16 15 14 13 12 12 11 11 11 10 10 11 11 11 11 11 12 12 12 12 12
3 4 7 9 9 6 5 3 5 8 8 7 6 4 5 5 4 7 13 14 16 17 17 20 20 18 17 17 16 15 14 13 12 11 11 11 10 10 10 10 9 10 10 10 10 10 10 10 10
4 5 8 10 9 6 5 5 7 9 7 6 6 5 4 6 6 8 12 13 14 16 16 19 20 18 18 17 16 15 14 13 12 11 11 11 10 9 9 9 8 8 8 8 8 9 9 9 9
4 6 8 8 8 7 5 5 8 9 9 7 5 6 5 7 6 9 12 12 13 15 15 16 19 18 18 17 16 15 14 13 12 11 11 10 9 9 8 7 7 7 6 6 6 6 7 7 7
3 4 7 7 7 7 3 4 3 7 6 3 5 6 4 7 9 10 11 11 12 14 15 15 17 17 17 17 17 16 15 14 13 12 11 10 9 8 8 7 6 5 4 4 4 4 5 5 5
3 7 8 7 6 5 3 4 3 2 4 4 4 2 4 9 11 12 11 11 12 14 14 15 16 16 16 16 17 17 15 14 13 12 12 11 8 7 7 5 5 4 3 2 2 2 3 1 2
6 9 8 4 3 2 2 3 3 5 6 6 6 5 5 9 12 14 15 16 16 17 17 15 15 15 16 14 15 14 14 13 13 11 11 9 7 6 5 7 6 4 3 2 1 1 2 3 1
6 9 7 5 4 3 3 3 3 5 7 8 8 8 9 11 12 14 16 16 17 16 16 15 15 15 15 13 13 12 11 12 12 11 11 9 7 6 5 5 6 6 5 4 3 4 3 3 3
7 8 6 5 3 4 5 4 5 9 9 5 6 5 9 12 15 16 16 15 14 15 17 16 16 15 16 14 13 12 11 11 11 11 11 9 7 6 5 5 5 4 4 4 4 4 4 5 5
11 8 7 6 6 6 7 9 9 11 11 8 6 8 11 13 14 14 14 14 14 15 16 17 17 16 15 14 12 12 12 11 12 11 11 10 8 7 6 6 5 6 5 5 5 5 5 6 6
7 8 8 7 8 5 8 12 8 13 10 10 10 12 13 14 14 13 13 14 15 15 16 16 18 17 16 14 12 12 12 12 12 11 12 12 10 8 7 6 6 6 6 5 6 6 6 6 6
5 7 9 8 7 5 6 12 12 12 8 10 11 12 12 13 13 15 15 15 15 15 15 16 17 18 17 16 14 12 12 12 12 11 12 12 11 9 8 6 6 6 6 6 6 6 5 5 6
5 8 10 7 6 5 7 13 8 4 6 10 11 11 11 12 13 14 13 13 13 14 15 16 14 17 18 16 14 12 13 12 11 11 11 12 11 10 8 6 6 6 5 5 4 4 5 5 6
9 10 10 7 5 5 8 11 9 6 8 12 13 13 12 12 13 13 13 13 13 14 15 16 17 18 18 16 13 13 11 11 10 10 10 10 11 10 8 6 6 6 5 4 3 4 4 5 5
11 11 10 9 4 6 10 15 15 12 12 15 16 15 15 15 15 12 12 12 12 13 14 15 17 17 17 14 11 9 9 8 9 8 9 10 9 9 8 6 5 5 4 3 3 4 3 4 5
10 11 13 11 5 6 13 17 18 16 15 17 17 16 16 16 13 10 11 12 12 13 14 15 17 17 15 13 12 11 10 8 7 7 8 9 9 9 7 5 5 4 4 3 4 3 4 3 3
14 15 15 12 6 7 14 19 19 18 17 17 17 17 16 14 12 11 12 12 13 14 15 16 17 17 17 14 13 10 9 7 6 6 7 8 8 8 7 6 4 4 3 3 3 3 2 2 2
17 17 16 14 10 8 11 16 14 13 13 14 16 16 15 14 13 12 13 13 13 14 15 14 17 17 17 16 11 9 7 5 5 6 6 7 8 8 7 7 5 4 4 3 3 3 3 3 2
18 15 14 14 13 12 7 13 15 14 14 14 13 12 11 10 10 11 12 14 14 13 13 14 16 16 17 16 15 16 12 10 9 8 7 8 8 8 8 7 6 5 4 4 3 3 2 3 3
14 8 10 11 13 16 14 13 13 10 13 12 9 7 7 8 8 10 12 13 12 12 12 13 15 16 16 17 17 17 13 10 8 9 10 9 8 8 8 8 6 5 4 4 3 3 3 3 3
9 6 3 5 9 16 16 13 13 9 10 10 9 9 8 7 6 8 9 11 11 11 12 13 15 15 16 16 16 16 15 13 13 12 11 9 7 6 8 7 6 6 4 4 3 3 3 3 4
13 11 7 8 9 11 6 9 11 11 10 11 13 13 10 7 5 7 10 12 12 13 13 14 15 15 16 16 16 15 15 15 15 14 12 10 8 7 8 7 6 5 5 4 4 4 4 4 5
19 19 13 8 10 7 5 10 9 9 9 10 11 11 8 6 5 8 11 12 13 14 15 15 16 16 16 15 15 14 14 11 11 12 11 10 8 8 9 8 7 6 6 5 4 4 4 4 5
15 17 18 14 11 11 10 10 9 11 10 8 7 6 5 4 5 8 10 12 13 14 15 16 16 16 16 15 14 13 13 12 12 12 11 9 8 7 9 8 7 6 6 5 5 4 5 5 5
15 13 9 11 9 12 12 14 10 10 9 6 5 4 4 2 4 7 9 11 12 13 14 15 15 16 15 15 14 11 13 12 12 11 11 10 10 9 9 8 7 6 6 5 5 5 5 6 6
14 16 12 11 11 9 9 8 6 9 6 5 4 4 3 1 3 6 8 11 12 12 13 14 15 15 15 15 14 13 13 12 12 11 11 11 10 10 9 8 7 7 6 6 6 6 6 7 7
21 21 21 15 13 10 10 10 4 8 7 7 6 4 3 2 3 6 8 11 12 13 14 15 15 15 15 14 14 14 13 13 12 12 11 11 10 9 9 8 7 7 7 7 7 7 7 8 9
Wind_Direction
285 297 270 220 209 219 217 195 187 168 174 159 155 187 179 64 23 74 107 150 147 156 160 164 165 163 158 150 142 135 128 123 118 112 107 100 93 87 81 77 74 71 68 66 66 65 63 63 63
289 277 221 211 218 213 205 197 192 176 139 136 154 169 169 122 79 107 136 156 155 157 161 164 163 161 158 153 146 140 135 131 126 119 112 105 98 91 86 81 77 74 70 68 67 66 64 63 62
231 257 212 199 220 220 197 191 192 161 159 172 163 177 190 120 127 132 140 156 158 160 163 160 164 163 159 157 152 144 140 135 131 125 118 111 103 96 90 84 80 77 74 71 69 66 65 63 63
219 204 211 220 216 218 215 174 172 172 173 188 183 166 151 92 109 119 140 156 160 162 164 161 168 167 165 161 155 148 145 141 137 131 126 118 109 102 95 89 85 81 78 75 72 69 65 63 62
226 208 205 216 218 213 220 216 193 191 180 183 196 183 151 124 112 132 151 160 163 163 165 164 171 171 168 163 157 153 152 149 145 139 133 125 116 109 102 97 90 85 81 77 74 71 67 63 61
202 213 214 214 210 212 216 207 202 205 189 182 198 202 154 130 144 148 158 165 167 164 166 165 173 173 171 168 162 159 158 155 152 147 141 132 125 119 112 105 98 91 85 80 76 71 67 64 61
218 212 222 219 214 213 205 194 210 206 203 195 199 213 167 146 136 150 161 164 168 168 169 170 174 176 176 172 168 165 164 161 158 155 148 141 135 131 124 115 108 100 93 85 79 74 68 64 58
245 218 217 216 215 207 179 186 217 220 210 172 203 225 191 139 139 147 156 164 170 174 177 176 177 178 178 177 173 169 170 168 165 161 152 147 147 145 138 137 126 120 114 101 89 81 72 64 55
227 226 222 213 213 197 171 189 174 213 190 179 205 247 82 127 145 150 158 169 176 182 184 183 182 181 181 180 174 173 175 173 169 165 156 160 164 156 158 145 152 157 144 127 114 83 76 81 107
213 227 223 215 218 204 192 215 184 192 204 202 201 185 144 157 169 175 179 180 183 187 189 187 187 184 183 180 178 182 182 179 182 178 175 178 173 167 166 162 187 195 198 197 172 150 199 264 313
213 230 224 224 236 247 230 231 209 225 230 227 227 210 182 185 194 200 199 194 191 188 188 191 190 188 186 183 184 184 184 182 186 184 182 182 179 180 189 190 194 206 213 224 217 233 266 294 307
221 228 229 229 212 226 243 244 238 238 251 260 256 234 196 203 208 209 208 203 194 191 192 193 192 191 191 189 189 188 187 186 187 187 189 188 189 195 203 213 213 220 224 236 246 261 266 275 283
225 231 230 239 235 245 251 251 260 254 258 261 251 233 226 225 223 220 217 208 198 196 194 195 195 194 193 194 193 194 191 191 190 190 194 195 195 200 207 217 222 231 237 238 247 258 267 271 280
225 229 234 241 240 233 247 260 253 258 260 255 246 242 239 235 231 224 214 210 203 200 196 194 197 197 194 195 196 195 194 193 195 194 197 198 200 204 211 219 224 233 236 243 255 263 271 278 281
216 234 245 237 232 229 241 256 245 257 253 255 253 249 245 241 234 228 220 214 208 202 197 194 196 197 197 198 198 197 195 194 195 197 199 200 203 208 212 219 224 230 233 241 254 262 270 276 278
206 232 243 224 215 203 225 260 256 240 247 266 266 259 249 243 236 231 224 217 210 202 198 194 192 196 197 197 197 197 197 196 196 197 199 202 206 208 211 218 225 227 228 233 245 258 264 270 278
219 235 241 239 204 201 228 266 273 263 264 271 270 265 256 249 239 229 221 214 208 203 197 193 192 194 195 194 194 194 193 195 193 192 194 197 203 206 211 218 224 219 217 227 237 253 270 282 288
223 232 240 245 209 216 250 268 278 277 269 271 271 267 260 251 243 229 215 209 205 202 197 193 190 191 189 188 189 187 187 189 188 187 190 193 197 200 207 209 212 206 212 223 234 252 267 286 299
238 244 252 258 246 248 268 275 280 280 273 269 268 265 261 255 250 227 210 202 197 194 192 190 188 186 184 183 184 184 186 183 181 178 182 185 186 191 194 194 196 202 215 224 234 248 258 274 309
232 243 255 266 252 257 279 279 279 274 268 267 270 269 266 262 246 221 207 198 195 190 188 186 186 183 183 184 183 184 178 176 170 165 169 176 178 179 181 188 186 190 199 210 217 228 257 268 297
229 239 250 262 275 257 283 281 270 269 266 267 266 267 266 262 250 227 209 199 194 190 186 183 183 181 183 179 171 157 150 150 161 168 166 169 172 172 174 182 181 181 191 199 202 213 240 264 261
234 234 247 258 268 274 276 290 284 280 278 272 272 270 266 265 250 230 211 201 194 189 182 180 178 179 180 176 175 174 177 179 183 174 164 160 165 165 168 170 169 170 178 183 190 212 236 255 263
232 226 228 245 260 272 261 272 279 273 272 277 283 285 280 274 253 229 210 200 191 181 177 177 175 177 178 180 181 182 184 179 165 161 159 158 158 161 163 164 164 167 172 178 183 199 220 244 262
178 146 167 224 254 261 258 255 277 261 263 284 297 300 297 287 257 225 203 189 181 174 173 174 174 175 177 181 182 185 180 170 163 165 165 164 160 162 165 166 168 169 169 176 186 202 218 238 250
190 208 228 236 232 251 232 241 259 265 263 279 292 300 301 288 247 208 192 186 180 176 174 174 174 174 177 181 183 184 179 174 173 172 173 170 168 171 172 171 173 173 174 179 189 206 224 235 246
200 210 219 239 249 252 204 240 257 272 278 278 281 288 292 276 234 208 197 190 183 179 177 176 176 175 177 180 181 180 176 176 176 175 173 175 174 172 170 174 176 175 178 184 197 216 228 239 246
196 215 230 250 267 271 254 251 272 272 270 275 285 293 296 274 227 206 197 193 186 182 181 180 177 175 177 178 177 176 175 174 171 170 171 171 167 163 169 173 176 179 185 196 208 228 234 243 250
213 199 198 220 242 251 254 254 252 254 258 275 297 311 314 278 215 202 198 194 189 186 183 182 181 178 176 176 175 173 174 171 167 167 170 169 166 166 170 176 181 186 195 205 218 234 241 248 253
189 196 206 216 229 242 258 247 223 241 252 273 291 309 311 272 206 199 196 193 188 185 184 184 183 179 177 177 174 172 170 168 168 171 172 170 170 172 177 181 188 196 206 214 225 236 243 251 258
207 206 204 213 219 229 253 260 196 234 249 259 273 289 303 274 219 200 194 190 188 188 187 187 186 184 181 177 175 172 168 168 171 173 173 173 174 177 181 185 196 206 215 225 235 243 247 253 259
Height
1535 1536 1538 1541 1540 1537 1534 1532 1531 1533 1534 1536 1537 1538 1537 1537 1538 1544 1545 1542 1543 1544 1546 1547 1549 1552 1553 1555 1556 1557 1557 1558 1558 1558 1557 1557 1557 1556 1556 1555 1555 1554 1554 1553 1553 1552 1551 1551 1550
1535 1536 1540 1540 1535 1537 1534 1530 1531 1531 1534 1537 1538 1539 1538 1538 1541 1542 1542 1542 1543 1545 1546 1548 1549 1552 1553 1555 1556 1557 1558 1558 1558 1558 1558 1558 1558 1557 1557 1556 1556 1555 1555 1554 1554 1553 1552 1551 1551
1535 1536 1539 1535 1533 1531 1530 1529 1529 1533 1536 1537 1538 1539 1538 1540 1542 1542 1542 1543 1543 1545 1547 1548 1550 1552 1553 1555 1556 1557 1558 1558 1559 1559 1559 1559 1559 1558 1558 1557 1557 1556 1555 1555 1554 1554 1553 1552 1552
1536 1539 1538 1532 1531 1528 1527 1528 1531 1533 1536 1537 1537 1537 1539 1540 1541 1542 1542 1543 1544 1545 1547 1548 1550 1552 1553 1555 1556 1557 1558 1558 1559 1559 1560 1560 1559 1559 1558 1558 1558 1557 1557 1556 1555 1555 1554 1553 1553
1536 1536 1533 1531 1529 1527 1528 1531 1532 1531 1532 1535 1536 1535 1538 1539 1540 1541 1542 1543 1544 1546 1547 1548 1550 1551 1553 1555 1556 1557 1558 1559 1559 1559 1560 1560 1560 1559 1559 1559 1559 1558 1558 1557 1557 1556 1555 1554 1554
1537 1533 1530 1530 1528 1528 1528 1531 1532 1531 1531 1534 1535 1535 1537 1538 1539 1540 1542 1543 1545 1546 1547 1548 1549 1551 1553 1555 1556 1557 1558 1559 1559 1560 1560 1560 1560 1560 1560 1560 1559 1559 1558 1558 1557 1557 1556 1555 1555
1535 1531 1528 1527 1528 1527 1528 1530 1530 1529 1530 1532 1534 1534 1535 1537 1538 1539 1541 1542 1544 1545 1547 1548 1549 1551 1552 1554 1556 1557 1558 1559 1559 1560 1560 1561 1561 1561 1560 1560 1560 1560 1559 1559 1558 1558 1557 1556 1555
1534 1531 1529 1528 1528 1527 1528 1529 1530 1529 1529 1532 1533 1532 1533 1536 1536 1538 1539 1541 1543 1544 1546 1547 1549 1550 1552 1554 1555 1556 1557 1558 1559 1560 1560 1561 1561 1561 1561 1561 1560 1560 1560 1559 1559 1558 1557 1557 1556
1533 1531 1528 1527 1527 1526 1528 1528 1529 1529 1530 1531 1531 1532 1533 1533 1534 1536 1537 1539 1540 1542 1544 1545 1547 1549 1551 1553 1554 1555 1557 1558 1559 1559 1560 1560 1561 1561 1561 1561 1560 1560 1560 1559 1559 1558 1557 1557 1556
1532 1529 1526 1526 1526 1525 1527 1527 1528 1528 1528 1529 1530 1530 1531 1531 1533 1534 1535 1536 1537 1539 1541 1543 1545 1547 1549 1551 1552 1554 1556 1557 1558 1559 1559 1560 1561 1561 1561 1560 1560 1560 1560 1559 1559 1558 1557 1557 1557
1529 1526 1525 1527 1527 1527 1527 1527 1527 1527 1525 1526 1527 1528 1528 1529 1530 1531 1532 1534 1535 1536 1538 1540 1542 1544 1546 1548 1550 1552 1553 1555 1556 1558 1558 1559 1560 1560 1560 1560 1560 1560 1559 1559 1558 1558 1557 1557 1556
1527 1526 1526 1525 1527 1527 1526 1526 1526 1525 1524 1525 1525 1526 1526 1526 1527 1528 1529 1531 1532 1533 1535 1537 1539 1541 1543 1545 1547 1549 1551 1552 1554 1555 1556 1558 1558 1559 1559 1559 1559 1559 1559 1558 1558 1557 1557 1556 1555
1525 1524 1525 1525 1525 1526 1525 1524 1524 1522 1522 1522 1522 1522 1522 1523 1523 1524 1526 1527 1528 1529 1532 1534 1536 1538 1540 1542 1544 1546 1548 1550 1552 1553 1554 1555 1557 1557 1558 1558 1558 1558 1558 1557 1557 1556 1556 1554 1553
1522 1523 1523 1523 1523 1523 1523 1521 1522 1518 1518 1518 1518 1517 1518 1518 1519 1520 1520 1521 1523 1525 1527 1530 1532 1534 1536 1538 1541 1543 1545 1547 1549 1550 1552 1553 1554 1555 1556 1556 1556 1556 1556 1556 1555 1555 1554 1553 1551
1522 1521 1519 1519 1520 1521 1522 1518 1515 1514 1515 1514 1514 1514 1513 1513 1513 1514 1515 1517 1519 1520 1523 1525 1528 1530 1532 1535 1537 1540 1542 1544 1546 1548 1550 1551 1552 1553 1554 1554 1554 1554 1554 1553 1553 1552 1551 1550 1549
1520 1519 1518 1515 1517 1518 1521 1513 1509 1511 1511 1510 1510 1509 1509 1508 1508 1509 1510 1511 1513 1515 1518 1520 1523 1526 1528 1531 1534 1537 1539 1541 1543 1545 1547 1548 1550 1551 1551 1552 1552 1552 1552 1551 1550 1550 1549 1548 1546
1516 1515 1514 1513 1515 1516 1515 1510 1507 1508 1508 1506 1505 1504 1503 1503 1503 1503 1504 1506 1508 1510 1513 1515 1518 1520 1523 1527 1530 1533 1536 1538 1540 1542 1544 1546 1547 1548 1549 1549 1549 1549 1549 1548 1548 1547 1546 1545 1544
1512 1512 1512 1511 1511 1513 1512 1507 1503 1504 1504 1501 1499 1498 1497 1497 1497 1498 1499 1500 1502 1505 1507 1509 1512 1515 1519 1522 1526 1529 1532 1534 1537 1539 1541 1543 1544 1545 1546 1546 1547 1547 1546 1546 1545 1544 1543 1542 1541
1507 1509 1509 1507 1508 1512 1507 1502 1498 1498 1497 1495 1492 1491 1490 1490 1490 1491 1492 1494 1496 1498 1501 1503 1506 1509 1513 1516 1520 1523 1527 1530 1533 1536 1538 1540 1541 1542 1543 1543 1544 1544 1543 1543 1542 1542 1541 1539 1538
1507 1508 1507 1505 1507 1509 1503 1498 1493 1491 1490 1488 1486 1484 1484 1483 1484 1483 1485 1487 1489 1492 1495 1498 1501 1504 1507 1511 1516 1520 1523 1527 1529 1532 1534 1536 1538 1539 1540 1540 1541 1541 1540 1540 1539 1539 1538 1537 1536
1504 1504 1504 1504 1503 1505 1505 1494 1486 1483 1483 1482 1480 1478 1478 1477 1477 1477 1478 1480 1483 1486 1489 1492 1496 1499 1503 1507 1511 1516 1520 1523 1526 1528 1531 1533 1534 1536 1537 1537 1537 1537 1537 1537 1536 1536 1536 1535 1534
1499 1499 1502 1504 1505 1500 1502 1497 1482 1477 1476 1475 1474 1472 1472 1471 1471 1471 1472 1474 1477 1481 1484 1488 1491 1495 1499 1503 1507 1511 1514 1518 1521 1525 1527 1529 1531 1532 1534 1534 1535 1535 1534 1534 1534 1533 1533 1532 1531
1493 1497 1501 1503 1502 1500 1497 1497 1479 1473 1472 1467 1467 1467 1467 1466 1465 1465 1466 1469 1472 1476 1480 1483 1487 1491 1495 1499 1503 1508 1512 1516 1519 1522 1524 1526 1528 1529 1530 1531 1532 1532 1531 1531 1531 1531 1530 1529 1528
1495 1500 1504 1504 1501 1500 1489 1491 1476 1465 1464 1462 1462 1463 1463 1462 1461 1461 1462 1464 1467 1471 1475 1479 1483 1487 1491 1496 1500 1504 1508 1512 1515 1518 1520 1522 1524 1526 1527 1528 1529 1529 1529 1528 1528 1528 1527 1526 1525
1492 1495 1502 1501 1498 1489 1485 1487 1472 1459 1460 1461 1460 1460 1459 1458 1457 1457 1458 1460 1463 1467 1471 1475 1480 1484 1488 1493 1497 1501 1505 1509 1512 1515 1517 1519 1521 1523 1524 1525 1526 1526 1526 1525 1525 1524 1524 1523 1521
1483 1485 1492 1494 1486 1479 1489 1482 1463 1457 1458 1459 1458 1457 1456 1455 1454 1454 1455 1457 1460 1464 1468 1472 1476 1481 1485 1489 1494 1498 1502 1506 1509 1512 1514 1516 1518 1520 1521 1522 1522 1522 1522 1522 1522 1521 1520 1519 1517
1477 1479 1475 1481 1482 1486 1474 1466 1461 1455 1454 1454 1454 1454 1453 1452 1451 1451 1453 1455 1457 1461 1465 1469 1473 1478 1482 1486 1491 1495 1498 1502 1505 1508 1511 1513 1515 1517 1518 1519 1519 1519 1519 1519 1518 1517 1516 1515 1513
1467 1470 1480 1483 1486 1483 1469 1465 1459 1450 1449 1449 1450 1451 1451 1450 1449 1449 1451 1453 1456 1459 1463 1467 1471 1475 1479 1483 1487 1491 1495 1499 1502 1505 1508 1510 1512 1513 1514 1515 1515 1515 1515 1515 1514 1513 1512 1511 1509
1467 1470 1469 1470 1470 1471 1466 1457 1446 1445 1446 1448 1448 1449 1449 1448 1448 1448 1449 1451 1454 1457 1460 1464 1468 1472 1476 1480 1484 1488 1492 1496 1499 1502 1504 1506 1508 1509 1510 1511 1511 1511 1511 1511 1510 1509 1507 1506 1505
1452 1454 1459 1467 1467 1466 1461 1452 1441 1444 1445 1446 1447 1447 1447 1446 1446 1447 1448 1449 1451 1454 1457 1461 1465 1469 1473 1477 1481 1485 1489 1492 1495 1498 1500 1502 1504 1505 1506 1507 1507 1507 1507 1506 1505 1504 1503 1501 1499